Location: Krakow
(50.0830°N, 19.9170°E)
Time: 19:15:42
(UTC+01:00)

S-56A Canister/Altair - Visible Passes

Search period start: 30 January 2023 00:00
Search period end: 09 February 2023 00:00
Orbit: 639 x 2493 km, 38.9° (Epoch: 29 January)

Date Brightness Start Highest point End Pass type
(mag) Time Alt. Az. Time Alt. Az. Time Alt. Az.
30 Jan 11.0 17:03:49 10° WSW 17:10:15 24° SSW 17:18:41 10° SSE visible
01 Feb 11.7 18:05:59 10° SW 18:08:07 11° SW 18:10:24 10° SSW visible
02 Feb 11.6 17:32:31 10° SW 17:35:15 12° SSW 17:38:16 10° SSW visible
